GW6994 Weather Reports


time (UTC)temp
F
wind
direction
speed
knots
gust
knots
rain 1hr
in
rain 24hr
in
rain mn
in
humidity
%
barometer
mb
20260901081333 75 284 0.0 0.0 0.00 0.00 0.00 71 1056.9
20260901080833 75 284 0.0 0.0 0.00 0.00 0.00 70 1057.0
20260901080328 76 284 0.0 0.0 0.00 0.00 0.00 70 1057.1
20260901075828 75 277 0.9 1.7 0.00 0.00 0.00 70 1056.9
20260901075323 75 297 0.0 0.0 0.00 0.00 0.00 71 1057.0
20260901074818 75 284 0.0 0.0 0.00 0.00 0.00 71 1057.1
20260901074312 75 284 0.0 0.0 0.00 0.00 0.00 71 1056.7
20260901073808 74 336 0.0 0.0 0.00 0.00 0.00 72 1056.8
20260901073304 74 322 0.0 0.0 0.00 0.00 0.00 72 1056.8
20260901072759 75 326 0.0 0.0 0.00 0.00 0.00 72 1056.7
20260901072259 75 293 0.0 0.0 0.00 0.00 0.00 70 1056.8
20260901071754 75 299 0.9 1.7 0.00 0.00 0.00 71 1056.8
20260901071253 75 291 0.0 0.9 0.00 0.00 0.00 70 1056.7
20260901070752 76 255 0.0 0.0 0.00 0.00 0.00 69 1056.6
20260901070248 76 269 0.0 0.0 0.00 0.00 0.00 69 1056.7
20260901065747 76 175 0.0 1.7 0.00 0.00 0.00 70 1056.9
20260901065242 75 322 0.0 0.0 0.00 0.00 0.00 71 1056.8
20260901064738 75 0 0.0 0.0 0.00 0.00 0.00 72 1056.9
20260901064234 74 0 0.0 0.0 0.00 0.00 0.00 72 1056.9
20260901063731 75 347 0.0 0.9 0.00 0.00 0.00 72 1056.9
20260901063227 76 37 0.0 0.0 0.00 0.00 0.00 71 1056.8
20260901062723 77 88 1.7 1.7 0.00 0.00 0.00 68 1056.9
20260901062219 78 297 0.0 0.0 0.00 0.00 0.00 65 1056.9
20260901061714 78 230 0.0 0.0 0.00 0.00 0.00 65 1057.0
20260901061214 78 255 0.0 0.0 0.00 0.00 0.00 65 1056.8
20260901060709 78 251 0.0 0.9 0.00 0.00 0.00 65 1056.8
20260901060204 78 235 0.0 0.0 0.00 0.00 0.00 65 1056.9
20260901055700 78 255 0.0 0.0 0.00 0.00 0.00 65 1056.8
20260901055156 78 269 0.0 0.0 0.00 0.00 0.00 65 1056.9
20260901054653 78 302 0.0 0.9 0.00 0.00 0.00 65 1056.7
20260901054149 78 268 0.0 0.9 0.00 0.00 0.00 65 1056.8
20260901053645 78 246 0.0 0.0 0.00 0.00 0.00 65 1056.8
20260901053141 78 242 0.0 0.9 0.00 0.00 0.00 65 1056.7
20260901052636 78 269 0.0 0.9 0.00 0.00 0.00 65 1056.6
20260901052131 78 255 0.0 0.0 0.00 0.00 0.00 65 1056.6
20260901051630 78 150 0.0 0.0 0.00 0.00 0.00 66 1056.6
20260901051129 78 150 0.0 0.0 0.00 0.00 0.00 66 1056.3
20260901050625 78 197 0.0 0.0 0.00 0.00 0.00 66 1056.6
20260901050120 78 269 0.0 0.9 0.00 0.00 0.00 65 1056.4
20260901045615 78 242 0.0 0.0 0.00 0.00 0.00 64 1056.2
20260901045115 79 230 0.0 0.0 0.00 0.00 0.00 63 1056.3
20260901044611 80 217 0.0 0.9 0.00 0.00 0.00 62 1056.4
20260901044107 80 232 0.9 0.9 0.00 0.00 0.00 62 1056.4
20260901043603 80 186 0.0 1.7 0.00 0.00 0.00 62 1056.3
20260901043058 80 166 0.9 1.7 0.00 0.00 0.00 62 1056.3
20260901042557 79 175 0.0 1.7 0.00 0.00 0.00 63 1056.6
20260901042053 79 215 0.9 0.9 0.00 0.00 0.00 63 1056.3
20260901041548 80 239 0.0 0.9 0.00 0.00 0.00 62 1056.3
20260901041048 80 196 0.9 1.7 0.00 0.00 0.00 61 1056.7
20260901040548 80 242 0.9 1.7 0.00 0.00 0.00 62 1056.2
20260901040042 80 204 0.0 1.7 0.00 0.00 0.00 62 1056.3
20260901035540 79 214 0.0 0.9 0.00 0.00 0.00 63 1056.4
20260901035039 80 224 0.0 1.7 0.00 0.00 0.00 62 1056.6
20260901034539 80 235 0.0 0.9 0.00 0.00 0.00 62 1056.6
20260901034034 80 208 0.9 1.7 0.00 0.00 0.00 62 1056.1
20260901033533 80 224 0.0 0.9 0.00 0.00 0.00 62 1056.2
20260901033033 80 205 0.0 0.9 0.00 0.00 0.00 63 1056.6
20260901032532 80 228 0.0 1.7 0.00 0.00 0.00 63 1056.4
20260901032027 80 195 0.0 0.9 0.00 0.00 0.00 62 1056.1
20260901031522 80 297 0.0 0.9 0.00 0.00 0.00 62 1056.2
20260901031018 80 217 0.0 0.0 0.00 0.00 0.00 63 1056.1
20260901030518 80 269 0.0 0.9 0.00 0.00 0.00 64 1056.1
20260901030018 80 255 0.9 1.7 0.00 0.00 0.00 62 1056.2
20260901025513 80 275 0.0 0.0 0.00 0.00 0.00 62 1056.2
20260901025012 80 217 0.0 0.0 0.00 0.00 0.00 63 1056.2
20260901024508 80 333 0.0 0.0 0.00 0.00 0.00 63 1056.1
20260901024006 79 242 0.0 0.0 0.00 0.00 0.00 64 1056.0
20260901023500 79 242 0.0 0.0 0.00 0.00 0.00 66 1055.9
20260901022955 79 125 0.0 0.0 0.00 0.00 0.00 66 1055.9
20260901022451 80 130 0.0 0.0 0.00 0.00 0.00 65 1055.8
20260901021951 79 130 0.0 0.0 0.00 0.00 0.00 65 1055.7
20260901021447 79 130 0.0 0.0 0.00 0.00 0.00 65 1055.8
20260901020942 80 117 0.0 0.0 0.00 0.00 0.00 64 1055.6
20260901020438 80 89 0.0 0.0 0.00 0.00 0.00 65 1055.6
20260901015936 80 89 0.0 0.0 0.00 0.00 0.00 64 1055.7
20260901015434 80 89 0.0 0.0 0.00 0.00 0.00 64 1055.5
20260901014932 81 89 0.0 0.0 0.00 0.00 0.00 63 1055.6
20260901014429 81 89 0.0 0.0 0.00 0.00 0.00 63 1055.6
20260901013924 82 89 0.0 0.0 0.00 0.00 0.00 61 1055.4
20260901013420 82 93 0.9 1.7 0.00 0.00 0.00 59 1055.4
20260901012916 83 230 0.0 0.0 0.00 0.00 0.00 59 1055.1
20260901012415 83 135 0.0 0.0 0.00 0.00 0.00 57 1055.2
20260901011911 84 135 0.0 0.0 0.00 0.00 0.00 56 1055.0
20260901011407 84 230 0.0 0.0 0.00 0.00 0.00 55 1055.0
20260901010905 85 89 0.0 0.0 0.00 0.00 0.00 55 1055.0
20260901010400 85 32 0.0 0.0 0.00 0.00 0.00 53 1055.1
20260901005859 86 32 0.0 0.0 0.00 0.00 0.00 53 1055.1
20260901005354 87 32 0.0 0.0 0.00 0.00 0.00 51 1055.1
20260901004850 89 32 0.0 0.0 0.00 0.00 0.00 49 1055.0
20260901004349 90 48 0.0 0.0 0.00 0.00 0.00 47 1055.0
20260901003849 92 154 0.0 0.0 0.00 0.00 0.00 45 1055.0
20260901003344 93 205 0.0 0.0 0.00 0.00 0.00 43 1055.1
20260901002843 94 161 0.9 1.7 0.00 0.00 0.00 42 1054.9
20260901002343 95 152 0.0 0.9 0.00 0.00 0.00 41 1054.8
20260901001837 95 147 0.0 1.7 0.00 0.00 0.00 40 1054.9
20260901001333 96 162 0.9 1.7 0.00 0.00 0.00 39 1054.8
20260901000828 96 157 0.0 1.7 0.00 0.00 0.00 39 1054.8
20260901000323 96 156 0.9 2.6 0.00 0.00 0.00 39 1054.9
20260831235822 96 173 0.0 2.6 0.00 0.00 0.00 38 1054.9
20260831235318 97 137 1.7 3.5 0.00 0.00 0.00 38 1054.8
20260831234813 97 157 3.5 5.2 0.00 0.00 0.00 38 1055.0
20260831234312 98 147 4.3 6.1 0.00 0.00 0.00 36 1054.9
20260831233808 98 141 0.0 4.3 0.00 0.00 0.00 37 1054.8
20260831233303 98 177 2.6 2.6 0.00 0.00 0.00 37 1054.8
20260831232758 98 143 3.5 3.5 0.00 0.00 0.00 37 1054.7
20260831232255 98 148 6.1 7.8 0.00 0.00 0.00 36 1054.9
20260831231750 99 148 5.2 6.1 0.00 0.00 0.00 36 1054.9
20260831231248 99 177 2.6 5.2 0.00 0.00 0.00 36 1054.6
20260831230747 99 194 3.5 4.3 0.00 0.00 0.00 36 1054.8
20260831230242 100 171 2.6 4.3 0.00 0.00 0.00 35 1055.0
20260831225741 100 172 2.6 3.5 0.00 0.00 0.00 34 1054.8
20260831225237 101 166 2.6 3.5 0.00 0.00 0.00 34 1054.9
20260831224732 100 201 1.7 3.5 0.00 0.00 0.00 34 1054.7
20260831224228 100 171 3.5 3.5 0.00 0.00 0.00 34 1054.7
20260831223723 99 153 2.6 6.1 0.00 0.00 0.00 34 1054.8
20260831223219 100 158 4.3 6.1 0.00 0.00 0.00 34 1054.9
20260831222715 100 161 4.3 5.2 0.00 0.00 0.00 33 1054.9
20260831222210 101 168 4.3 6.1 0.00 0.00 0.00 33 1054.9
20260831221706 100 197 2.6 5.2 0.00 0.00 0.00 33 1055.0
20260831221201 100 196 4.3 6.1 0.00 0.00 0.00 33 1055.1
20260831220655 100 162 7.0 7.0 0.00 0.00 0.00 33 1054.8
20260831220151 100 187 2.6 4.3 0.00 0.00 0.00 34 1054.9
20260831215646 100 201 2.6 6.1 0.00 0.00 0.00 34 1054.8
20260831215141 99 154 2.6 7.0 0.00 0.00 0.00 35 1055.0
20260831214639 100 184 4.3 9.6 0.00 0.00 0.00 35 1055.1
20260831214135 101 182 2.6 5.2 0.00 0.00 0.00 34 1055.1
20260831213631 100 143 5.2 9.6 0.00 0.00 0.00 33 1054.8
20260831213126 101 138 10.4 11.3 0.00 0.00 0.00 33 1055.0
20260831212622 101 212 4.3 5.2 0.00 0.00 0.00 34 1055.1
20260831212119 100 48 0.9 5.2 0.00 0.00 0.00 33 1055.0
20260831211618 100 161 5.2 8.7 0.00 0.00 0.00 33 1055.2
20260831211117 101 148 6.1 7.8 0.00 0.00 0.00 33 1055.2
20260831210612 100 215 4.3 9.6 0.00 0.00 0.00 33 1055.2
20260831210108 100 171 7.8 11.3 0.00 0.00 0.00 33 1055.2
20260831205608 102 143 1.7 5.2 0.00 0.00 0.00 31 1055.3
20260831205104 101 193 1.7 6.1 0.00 0.00 0.00 32 1055.3
20260831204559 100 225 6.1 6.1 0.00 0.00 0.00 32 1055.3
20260831204057 101 222 5.2 5.2 0.00 0.00 0.00 32 1055.4
20260831203551 102 240 5.2 7.0 0.00 0.00 0.00 32 1055.4
20260831203051 102 232 3.5 5.2 0.00 0.00 0.00 31 1055.4
20260831202550 101 199 3.5 4.3 0.00 0.00 0.00 32 1055.5
20260831202050 102 177 6.1 9.6 0.00 0.00 0.00 32 1055.5
20260831201549 102 195 0.9 5.2 0.00 0.00 0.00 31 1055.6
20260831201044 102 177 1.7 6.1 0.00 0.00 0.00 31 1055.7
20260831200540 101 224 3.5 7.0 0.00 0.00 0.00 32 1055.5
20260831200040 100 166 2.6 9.6 0.00 0.00 0.00 32 1055.8
20260831195536 100 165 5.2 11.3 0.00 0.00 0.00 33 1055.7
20260831195031 101 219 2.6 5.2 0.00 0.00 0.00 32 1055.7
20260831194526 100 199 7.0 8.7 0.00 0.00 0.00 33 1055.8
20260831194026 100 193 7.8 8.7 0.00 0.00 0.00 32 1055.9
20260831193521 100 187 7.8 8.7 0.00 0.00 0.00 33 1055.9
20260831193016 100 221 3.5 5.2 0.00 0.00 0.00 33 1055.8
20260831192511 100 262 3.5 6.1 0.00 0.00 0.00 32 1055.9
20260831192007 100 214 4.3 9.6 0.00 0.00 0.00 33 1056.2
20260831191503 101 193 3.5 6.1 0.00 0.00 0.00 33 1056.2
20260831190958 100 256 5.2 7.8 0.00 0.00 0.00 33 1055.9
20260831190454 100 207 6.1 8.7 0.00 0.00 0.00 33 1056.2
20260831185952 100 179 1.7 3.5 0.00 0.00 0.00 33 1056.2
20260831185448 100 283 3.5 6.1 0.00 0.00 0.00 33 1056.0
20260831184948 100 222 4.3 9.6 0.00 0.00 0.00 34 1056.3
20260831184443 99 174 5.2 8.7 0.00 0.00 0.00 33 1056.4
20260831183938 99 202 3.5 8.7 0.00 0.00 0.00 33 1056.7
20260831183437 100 211 3.5 13.0 0.00 0.00 0.00 33 1056.7
20260831182937 99 230 1.7 5.2 0.00 0.00 0.00 35 1056.6
20260831182433 100 268 2.6 6.1 0.00 0.00 0.00 34 1056.6
20260831181928 100 230 3.5 7.0 0.00 0.00 0.00 34 1056.9
20260831181423 101 273 4.3 7.8 0.00 0.00 0.00 34 1056.8
20260831180917 99 262 3.5 7.0 0.00 0.00 0.00 35 1056.9
20260831180412 100 257 4.3 4.3 0.00 0.00 0.00 36 1057.0
20260831175911 99 246 2.6 5.2 0.00 0.00 0.00 36 1057.1
20260831175408 98 244 5.2 7.0 0.00 0.00 0.00 36 1057.0
20260831174903 98 227 3.5 9.6 0.00 0.00 0.00 38 1057.0
20260831174358 98 203 6.1 11.3 0.00 0.00 0.00 39 1057.1
20260831173858 97 163 0.9 4.3 0.00 0.00 0.00 41 1057.1
20260831173357 97 255 0.0 7.0 0.00 0.00 0.00 40 1057.3
20260831172853 97 242 4.3 9.6 0.00 0.00 0.00 40 1057.5
20260831172348 97 225 6.1 11.3 0.00 0.00 0.00 40 1057.5
20260831171848 97 237 5.2 7.8 0.00 0.00 0.00 40 1057.6
20260831171344 96 244 2.6 9.6 0.00 0.00 0.00 41 1057.6
20260831170841 96 234 5.2 8.7 0.00 0.00 0.00 41 1057.8
20260831170337 95 246 1.7 8.7 0.00 0.00 0.00 42 1057.7
20260831165833 96 266 5.2 8.7 0.00 0.00 0.00 40 1057.6
20260831165329 96 214 5.2 7.8 0.00 0.00 0.00 42 1057.8
20260831164825 96 254 4.3 7.8 0.00 0.00 0.00 42 1057.7
20260831164321 95 272 3.5 9.6 0.00 0.00 0.00 43 1057.7
20260831163817 95 253 6.1 10.4 0.00 0.00 0.00 42 1057.8
20260831163312 96 244 3.5 6.1 0.00 0.00 0.00 42 1057.9
20260831162810 95 245 4.3 7.0 0.00 0.00 0.00 44 1057.9
20260831162306 94 261 5.2 8.7 0.00 0.00 0.00 44 1057.8
20260831161804 95 275 6.1 10.4 0.00 0.00 0.00 44 1057.9
20260831161301 93 249 4.3 7.8 0.00 0.00 0.00 46 1057.8
20260831160756 93 218 1.7 6.1 0.00 0.00 0.00 46 1057.9
20260831160251 93 247 7.0 8.7 0.00 0.00 0.00 45 1057.9
20260831155751 93 248 1.7 8.7 0.00 0.00 0.00 47 1057.9
20260831155246 93 254 5.2 11.3 0.00 0.00 0.00 46 1057.8
20260831154741 92 214 5.2 11.3 0.00 0.00 0.00 47 1057.9
20260831154238 92 209 5.2 7.8 0.00 0.00 0.00 47 1058.1
20260831153736 92 234 7.0 10.4 0.00 0.00 0.00 47 1057.9
20260831153232 91 217 2.6 9.6 0.00 0.00 0.00 49 1057.7
20260831152728 91 241 3.5 8.7 0.00 0.00 0.00 49 1057.9
20260831152224 91 216 5.2 8.7 0.00 0.00 0.00 49 1057.8
20260831151723 91 222 5.2 9.6 0.00 0.00 0.00 49 1057.9
20260831151223 90 234 3.5 8.7 0.00 0.00 0.00 51 1057.9
20260831150718 89 197 4.3 8.7 0.00 0.00 0.00 50 1058.0
20260831150214 89 238 5.2 10.4 0.00 0.00 0.00 52 1057.8
20260831145713 89 234 5.2 8.7 0.00 0.00 0.00 52 1057.9
20260831145209 88 184 3.5 9.6 0.00 0.00 0.00 53 1057.7
20260831144705 88 235 3.5 7.0 0.00 0.00 0.00 53 1057.8
20260831144201 88 209 5.2 7.8 0.00 0.00 0.00 52 1057.7
20260831143700 87 235 5.2 8.7 0.00 0.00 0.00 54 1058.0
20260831143155 87 218 2.6 7.8 0.00 0.00 0.00 54 1057.9
20260831142652 86 197 3.5 7.8 0.00 0.00 0.00 55 1057.8
20260831142147 86 221 4.3 8.7 0.00 0.00 0.00 55 1057.8
20260831141646 86 209 2.6 3.5 0.00 0.00 0.00 57 1057.9
20260831141141 85 202 4.3 7.0 0.00 0.00 0.00 57 1057.8
20260831140640 84 238 2.6 6.1 0.00 0.00 0.00 58 1057.8
20260831140135 83 203 3.5 4.3 0.00 0.00 0.00 59 1057.8
20260831135633 83 211 1.7 5.2 0.00 0.00 0.00 59 1057.9
20260831135129 82 214 1.7 5.2 0.00 0.00 0.00 60 1057.7
20260831134625 82 188 1.7 4.3 0.00 0.00 0.00 60 1058.1
20260831134121 82 179 2.6 4.3 0.00 0.00 0.00 61 1057.7
20260831133619 80 197 1.7 4.3 0.00 0.00 0.00 63 1057.8
20260831133114 80 175 1.7 3.5 0.00 0.00 0.00 63 1057.7
20260831132610 80 204 1.7 3.5 0.00 0.00 0.00 64 1057.5
20260831132109 80 209 2.6 2.6 0.00 0.00 0.00 63 1057.7
20260831131603 79 165 0.9 2.6 0.00 0.00 0.00 65 1057.7
20260831131100 78 211 1.7 2.6 0.00 0.00 0.00 66 1057.7
20260831130555 77 202 0.0 1.7 0.00 0.00 0.00 67 1057.8
20260831130051 77 205 0.0 1.7 0.00 0.00 0.00 68 1057.6
20260831125549 76 203 1.7 1.7 0.00 0.00 0.00 69 1057.6
20260831125045 76 224 0.0 1.7 0.00 0.00 0.00 70 1057.6
20260831124542 75 218 0.0 1.7 0.00 0.00 0.00 71 1057.4
20260831124037 74 232 0.0 0.9 0.00 0.00 0.00 73 1057.1
20260831123536 72 333 0.0 0.9 0.00 0.00 0.00 76 1057.2
20260831123031 71 44 0.0 0.9 0.00 0.00 0.00 77 1057.3
20260831122530 70 0 0.0 1.7 0.00 0.00 0.00 78 1056.9
20260831122027 71 53 0.0 1.7 0.00 0.00 0.00 77 1057.1
20260831121526 71 334 0.0 0.9 0.00 0.00 0.00 76 1057.0
20260831121023 70 295 0.9 1.7 0.00 0.00 0.00 77 1056.9
20260831120522 69 334 0.0 0.9 0.00 0.00 0.00 78 1056.8
20260831120018 69 338 0.0 0.9 0.00 0.00 0.00 79 1056.6
20260831115514 70 348 0.0 0.9 0.00 0.00 0.00 77 1056.3
20260831115009 70 18 0.0 0.0 0.00 0.00 0.00 77 1056.4
20260831114507 70 62 0.9 1.7 0.00 0.00 0.00 76 1056.4
20260831114002 70 321 0.0 0.9 0.00 0.00 0.00 76 1056.2
20260831113502 70 309 0.0 0.9 0.00 0.00 0.00 77 1056.2
20260831112958 69 6 0.0 0.0 0.00 0.00 0.00 78 1056.1
20260831112457 69 89 0.0 0.0 0.00 0.00 0.00 78 1056.2
20260831111952 69 73 0.0 0.9 0.00 0.00 0.00 78 1056.0
20260831111448 69 170 0.0 0.9 0.00 0.00 0.00 78 1056.0
20260831110943 69 13 0.0 0.9 0.00 0.00 0.00 80 1056.1
20260831110438 69 49 0.0 0.9 0.00 0.00 0.00 79 1056.0
20260831105937 70 37 0.0 1.7 0.00 0.00 0.00 78 1056.0
20260831105433 70 11 0.0 0.9 0.00 0.00 0.00 76 1055.9
20260831104928 71 329 0.0 0.0 0.00 0.00 0.00 75 1055.9
20260831104424 70 55 0.0 0.9 0.00 0.00 0.00 76 1056.0
20260831103920 70 45 0.0 0.9 0.00 0.00 0.00 77 1056.1
20260831103420 70 44 0.0 0.9 0.00 0.00 0.00 76 1055.9
20260831102915 70 323 0.0 1.7 0.00 0.00 0.00 76 1055.9
20260831102415 71 42 0.9 1.7 0.00 0.00 0.00 76 1055.9
20260831101911 71 16 1.7 1.7 0.00 0.00 0.00 74 1055.8
20260831101406 72 46 1.7 1.7 0.00 0.00 0.00 73 1055.8
20260831100902 72 141 0.0 0.9 0.00 0.00 0.00 72 1055.9
20260831100358 73 117 0.0 0.0 0.00 0.00 0.00 71 1056.0
20260831095858 73 154 0.0 1.7 0.00 0.00 0.00 71 1055.8
20260831095356 73 165 1.7 2.6 0.00 0.00 0.00 71 1055.8
20260831094852 73 160 1.7 1.7 0.00 0.00 0.00 71 1055.8
20260831094348 73 155 0.9 0.9 0.00 0.00 0.00 70 1055.8
20260831093843 73 150 0.9 1.7 0.00 0.00 0.00 71 1055.8
20260831093338 73 148 0.9 1.7 0.00 0.00 0.00 71 1056.0
20260831092835 73 157 0.0 1.7 0.00 0.00 0.00 70 1055.8
20260831092331 74 148 1.7 1.7 0.00 0.00 0.00 70 1056.1
20260831091826 74 168 0.0 0.9 0.00 0.00 0.00 69 1056.1
20260831091321 74 147 0.9 1.7 0.00 0.00 0.00 69 1055.8
20260831090816 74 107 1.7 1.7 0.00 0.00 0.00 69 1055.8
20260831090312 74 129 0.0 1.7 0.00 0.00 0.00 69 1055.7
20260831085809 74 145 0.9 0.9 0.00 0.00 0.00 69 1055.8
20260831085306 74 158 0.0 1.7 0.00 0.00 0.00 69 1055.9
20260831084803 74 139 0.0 0.9 0.00 0.00 0.00 68 1055.9
20260831084259 74 150 0.0 1.7 0.00 0.00 0.00 68 1055.8
20260831083755 74 140 0.9 0.9 0.00 0.00 0.00 69 1055.7
20260831083251 74 140 0.0 0.0 0.00 0.00 0.00 69 1055.7
20260831082749 74 119 0.0 0.0 0.00 0.00 0.00 69 1055.8
20260831082244 74 156 0.0 0.9 0.00 0.00 0.00 69 1055.9
20260831081740 74 124 0.0 0.0 0.00 0.00 0.00 68 1055.7